FW9568 Weather Reports


Display with metric or nautical units.
time (UTC)temp
F
wind
direction
speed
MPH
gust
MPH
rain 1hr
in
rain 24hr
in
rain mn
in
humidity
%
barometer
mb
20260904163603 85 253 0.0 1.0 0.00 0.00 0.00 32 1020.3
20260904162703 86 180 0.0 1.0 0.00 0.00 0.00 30 1020.3
20260904162016 86 224 0.0 1.0 0.00 0.00 0.00 32 1020.3
20260904160903 86 159 0.0 1.0 0.00 0.00 0.00 30 1020.3
20260904160003 85 184 0.0 2.0 0.00 0.00 0.00 30 1020.2
20260904155619 85 117 0.0 2.0 0.00 0.00 0.00 31 1020.2
20260904154503 86 0 0.0 0.0 0.00 0.00 0.00 29 1020.1
20260904153603 85 0 0.0 1.0 0.00 0.00 0.00 29 1020.0
20260904152703 84 0 0.0 0.0 0.00 0.00 0.00 34 1020.1
20260904151803 82 300 0.0 1.0 0.00 0.00 0.00 36 1020.1
20260904150903 81 300 0.0 1.0 0.00 0.00 0.00 37 1020.1
20260904150003 79 300 0.0 3.0 0.00 0.00 0.00 37 1020.1
20260904145403 78 300 0.0 3.0 0.00 0.00 0.00 36 1020.1
20260904144503 77 0 0.0 0.0 0.00 0.00 0.00 37 1020.1
20260904143603 75 0 0.0 0.0 0.00 0.00 0.00 40 1020.2
20260904142916 73 0 0.0 0.0 0.00 0.00 0.00 46 1020.1
20260904141803 70 0 0.0 0.0 0.00 0.00 0.00 51 1020.1
20260904140903 68 0 0.0 0.0 0.00 0.00 0.00 55 1020.2
20260904140003 67 0 0.0 0.0 0.00 0.00 0.00 53 1020.0
20260904135403 66 0 0.0 0.0 0.00 0.00 0.00 57 1019.9
20260904134503 65 0 0.0 1.0 0.00 0.00 0.00 54 1019.8
20260904133816 64 300 0.0 1.0 0.00 0.00 0.00 57 1019.6
20260904132916 62 0 0.0 0.0 0.00 0.00 0.00 59 1019.4
20260904132019 62 300 0.0 1.0 0.00 0.00 0.00 58 1019.3
20260904130903 62 301 1.0 2.0 0.00 0.00 0.00 58 1019.0
20260904130003 61 300 1.0 3.0 0.00 0.00 0.00 59 1018.8
20260904125403 60 301 1.0 2.0 0.00 0.00 0.00 60 1018.8
20260904124503 60 0 0.0 0.0 0.00 0.00 0.00 60 1018.8
20260904123603 60 301 0.0 2.0 0.00 0.00 0.00 60 1018.8
20260904122703 60 298 1.0 3.0 0.00 0.00 0.00 61 1018.6
20260904121803 60 294 2.0 4.0 0.00 0.00 0.00 62 1018.3
20260904120903 60 302 1.0 3.0 0.00 0.00 0.00 63 1018.3
20260904120003 60 297 1.0 4.0 0.00 0.00 0.00 64 1018.3
20260904115617 60 298 1.0 4.0 0.00 0.00 0.00 63 1018.2
20260904114503 60 296 0.0 3.0 0.00 0.00 0.00 64 1018.1
20260904113603 60 296 0.0 1.0 0.00 0.00 0.00 65 1017.9
20260904112919 60 296 0.0 1.0 0.00 0.00 0.00 65 1018.0
20260904111803 59 296 0.0 1.0 0.00 0.00 0.00 65 1018.1
20260904110903 59 296 0.0 2.0 0.00 0.00 0.00 65 1018.0
20260904110003 59 0 0.0 0.0 0.00 0.00 0.00 65 1018.0
20260904105403 60 0 0.0 0.0 0.00 0.00 0.00 65 1018.0
20260904104503 60 296 1.0 3.0 0.00 0.00 0.00 64 1018.0
20260904103603 60 284 0.0 3.0 0.00 0.00 0.00 64 1017.8
20260904102703 60 278 0.0 2.0 0.00 0.00 0.00 64 1017.8
20260904101803 60 278 0.0 2.0 0.00 0.00 0.00 63 1017.6
20260904100903 61 278 1.0 4.0 0.00 0.00 0.00 62 1017.6
20260904100003 61 277 1.0 4.0 0.00 0.00 0.00 62 1017.5
20260904095403 61 263 0.0 3.0 0.00 0.00 0.00 62 1017.5
20260904094503 62 0 0.0 0.0 0.00 0.00 0.00 61 1017.7
20260904093603 62 0 0.0 0.0 0.00 0.00 0.00 60 1017.6
20260904092703 62 0 0.0 0.0 0.00 0.00 0.00 60 1017.2
20260904091803 62 0 0.0 0.0 0.00 0.00 0.00 59 1017.4
20260904090903 63 263 0.0 2.0 0.00 0.00 0.00 58 1017.4
20260904090003 64 0 0.0 0.0 0.00 0.00 0.00 57 1017.5
20260904085403 64 263 0.0 1.0 0.00 0.00 0.00 57 1017.3
20260904084503 64 263 0.0 2.0 0.00 0.00 0.00 56 1017.3
20260904083818 64 266 0.0 2.0 0.00 0.00 0.00 57 1017.1
20260904082703 64 296 1.0 3.0 0.00 0.00 0.00 56 1017.4
20260904082017 64 294 0.0 2.0 0.00 0.00 0.00 55 1017.5
20260904080903 65 294 0.0 3.0 0.00 0.00 0.00 55 1017.5
20260904080003 65 0 0.0 0.0 0.00 0.00 0.00 53 1017.6
20260904075615 66 0 0.0 0.0 0.00 0.00 0.00 53 1017.6
20260904074503 66 0 0.0 0.0 0.00 0.00 0.00 52 1017.5
20260904073603 66 292 0.0 2.0 0.00 0.00 0.00 52 1017.7
20260904072703 67 293 1.0 3.0 0.00 0.00 0.00 51 1017.7
20260904071803 67 291 0.0 1.0 0.00 0.00 0.00 51 1017.9
20260904070903 67 291 0.0 3.0 0.00 0.00 0.00 50 1017.7
20260904070215 67 293 0.0 2.0 0.00 0.00 0.00 50 1017.9
20260904065403 68 96 1.0 2.0 0.00 0.00 0.00 50 1017.9
20260904064718 68 96 1.0 2.0 0.00 0.00 0.00 50 1017.8
20260904063603 68 96 0.0 1.0 0.00 0.00 0.00 48 1017.9
20260904062703 68 0 0.0 0.0 0.00 0.00 0.00 48 1017.8
20260904061803 68 0 0.0 0.0 0.00 0.00 0.00 48 1017.8
20260904060903 68 0 0.0 0.0 0.00 0.00 0.00 49 1017.9
20260904060004 68 0 0.0 0.0 0.00 0.00 0.00 49 1017.9
20260904055403 69 0 0.0 0.0 0.00 0.00 0.00 48 1018.0
20260904054503 69 0 0.0 0.0 0.00 0.00 0.00 48 1018.1
20260904053603 69 0 0.0 0.0 0.00 0.00 0.00 47 1018.0
20260904052703 70 0 0.0 0.0 0.00 0.00 0.00 47 1018.0
20260904051803 70 0 0.0 0.0 0.00 0.00 0.00 46 1018.0
20260904050903 70 0 0.0 0.0 0.00 0.00 0.00 45 1018.2
20260904050003 71 0 0.0 0.0 0.00 0.00 0.00 44 1018.2
20260904045403 71 0 0.0 0.0 0.00 0.00 0.00 43 1018.2
20260904044503 72 97 0.0 1.0 0.00 0.00 0.00 43 1018.4
20260904043603 72 96 0.0 2.0 0.00 0.00 0.00 43 1018.3
20260904042703 71 74 0.0 3.0 0.00 0.00 0.00 41 1018.3
20260904041803 71 0 0.0 1.0 0.00 0.00 0.00 41 1018.3
20260904040903 71 88 0.0 1.0 0.00 0.00 0.00 40 1018.4
20260904040003 72 88 0.0 1.0 0.00 0.00 0.00 38 1018.3
20260904035403 72 88 0.0 1.0 0.00 0.00 0.00 38 1018.2
20260904034717 72 0 0.0 0.0 0.00 0.00 0.00 38 1018.3
20260904033603 72 0 0.0 0.0 0.00 0.00 0.00 36 1018.3
20260904032703 72 0 0.0 0.0 0.00 0.00 0.00 34 1018.3
20260904031803 73 0 0.0 0.0 0.00 0.00 0.00 34 1018.0
20260904030903 73 0 0.0 0.0 0.00 0.00 0.00 34 1017.8
20260904030003 74 0 0.0 0.0 0.00 0.00 0.00 34 1017.7
20260904025403 74 0 0.0 0.0 0.00 0.00 0.00 34 1017.5
20260904024503 74 0 0.0 0.0 0.00 0.00 0.00 33 1017.6
20260904023603 75 0 0.0 0.0 0.00 0.00 0.00 32 1017.4
20260904022703 75 0 0.0 0.0 0.00 0.00 0.00 33 1017.3
20260904021803 76 0 0.0 0.0 0.00 0.00 0.00 32 1017.1
20260904020903 77 0 0.0 0.0 0.00 0.00 0.00 31 1017.0
20260904020218 78 0 0.0 0.0 0.00 0.00 0.00 31 1017.1
20260904015403 79 0 0.0 0.0 0.00 0.00 0.00 32 1017.1
20260904014717 80 88 0.0 2.0 0.00 0.00 0.00 30 1016.9
20260904013816 81 90 0.0 2.0 0.00 0.00 0.00 28 1016.9
20260904012703 83 100 1.0 2.0 0.00 0.00 0.00 26 1016.7
20260904012019 84 96 0.0 1.0 0.00 0.00 0.00 26 1016.7
20260904010903 85 102 1.0 2.0 0.00 0.00 0.00 25 1016.7
20260904010217 85 97 1.0 3.0 0.00 0.00 0.00 24 1016.6
20260904005617 86 103 1.0 2.0 0.00 0.00 0.00 24 1016.7
20260904004503 86 139 1.0 3.0 0.00 0.00 0.00 22 1016.8
20260904003816 87 109 1.0 3.0 0.00 0.00 0.00 21 1016.8
20260904002703 87 151 1.0 3.0 0.00 0.00 0.00 21 1016.6
20260904001803 87 140 1.0 4.0 0.00 0.00 0.00 20 1016.6
20260904000903 88 128 1.0 4.0 0.00 0.00 0.00 20 1016.6
20260904000003 88 130 1.0 4.0 0.00 0.00 0.00 20 1016.5
20260903235403 88 131 1.0 4.0 0.00 0.00 0.00 20 1016.5
20260903234503 88 114 1.0 6.0 0.00 0.00 0.00 19 1016.5
20260903233603 88 141 1.0 6.0 0.00 0.00 0.00 20 1016.6
20260903232703 89 136 1.0 6.0 0.00 0.00 0.00 20 1016.4
20260903231803 89 112 2.0 5.0 0.00 0.00 0.00 20 1016.5
20260903230903 89 130 1.0 6.0 0.00 0.00 0.00 20 1016.5
20260903230003 89 120 1.0 4.0 0.00 0.00 0.00 19 1016.7
20260903225403 89 120 1.0 4.0 0.00 0.00 0.00 20 1016.5
20260903224503 89 132 2.0 6.0 0.00 0.00 0.00 21 1016.4
20260903223819 89 123 2.0 5.0 0.00 0.00 0.00 20 1016.5
20260903222703 89 120 2.0 6.0 0.00 0.00 0.00 19 1016.6
20260903222018 89 128 2.0 6.0 0.00 0.00 0.00 20 1016.6
20260903220903 89 118 2.0 7.0 0.00 0.00 0.00 20 1016.9
20260903220003 90 123 2.0 8.0 0.00 0.00 0.00 20 1016.9
20260903215403 90 120 2.0 7.0 0.00 0.00 0.00 19 1016.9
20260903214503 90 193 2.0 7.0 0.00 0.00 0.00 19 1017.0
20260903213603 90 210 1.0 5.0 0.00 0.00 0.00 18 1016.9
20260903212703 89 188 1.0 4.0 0.00 0.00 0.00 22 1016.9
20260903211803 89 214 2.0 6.0 0.00 0.00 0.00 22 1017.0
20260903210903 90 172 1.0 6.0 0.00 0.00 0.00 22 1017.2
20260903210216 90 88 2.0 4.0 0.00 0.00 0.00 22 1017.1
20260903205403 90 325 1.0 4.0 0.00 0.00 0.00 21 1017.3
20260903204503 90 161 1.0 6.0 0.00 0.00 0.00 22 1017.6
20260903203603 90 197 1.0 6.0 0.00 0.00 0.00 21 1017.7
20260903202917 90 227 0.0 3.0 0.00 0.00 0.00 22 1017.6
20260903201803 90 127 2.0 7.0 0.00 0.00 0.00 21 1017.9
20260903200903 90 81 2.0 4.0 0.00 0.00 0.00 22 1018.0
20260903200003 90 79 1.0 5.0 0.00 0.00 0.00 22 1018.0
20260903195403 90 108 1.0 4.0 0.00 0.00 0.00 21 1018.2
20260903194503 90 125 2.0 7.0 0.00 0.00 0.00 24 1018.3
20260903193818 90 212 1.0 5.0 0.00 0.00 0.00 24 1018.3
20260903192703 90 109 2.0 6.0 0.00 0.00 0.00 23 1018.4
20260903191803 90 193 2.0 6.0 0.00 0.00 0.00 25 1018.6
20260903190903 90 68 1.0 5.0 0.00 0.00 0.00 23 1018.6
20260903190003 89 104 3.0 7.0 0.00 0.00 0.00 24 1018.6
20260903185403 89 87 2.0 7.0 0.00 0.00 0.00 22 1018.6
20260903184503 88 317 1.0 4.0 0.00 0.00 0.00 29 1018.8
20260903183817 89 72 1.0 4.0 0.00 0.00 0.00 22 1018.9
20260903182703 88 73 2.0 5.0 0.00 0.00 0.00 24 1019.2
20260903181803 87 66 1.0 4.0 0.00 0.00 0.00 25 1019.3
20260903180903 87 266 1.0 3.0 0.00 0.00 0.00 25 1019.4
20260903180219 87 247 1.0 3.0 0.00 0.00 0.00 25 1019.4
20260903175618 88 243 1.0 3.0 0.00 0.00 0.00 24 1019.5
20260903174503 88 80 1.0 3.0 0.00 0.00 0.00 26 1019.5
20260903173603 88 142 1.0 2.0 0.00 0.00 0.00 24 1019.9
20260903172703 88 108 1.0 3.0 0.00 0.00 0.00 27 1019.9
20260903171803 88 95 1.0 4.0 0.00 0.00 0.00 26 1019.9
20260903170903 87 111 0.0 3.0 0.00 0.00 0.00 28 1019.9
20260903170218 86 0 0.0 0.0 0.00 0.00 0.00 33 1019.9
20260903165403 84 143 0.0 2.0 0.00 0.00 0.00 30 1019.9
20260903164503 83 186 0.0 1.0 0.00 0.00 0.00 30 1019.9